Hourly Data Report for October 17, 2016

All times are specified in Local Standard Time (LST). Add 1 hour to adjust for Daylight Saving Time where and when it is observed.

OTTAWA INTL A
ONTARIO

45°19'00.000" N
75°40'00.000" W
114.90 m
6106001
71628
YOW

Download Data

Hourly Data (October 2016)
Hourly Data Report for October 17, 2016
Temp Definition
°C
Dew Point Temp Definition
°C
Rel Hum Definition
%
Wind Dir Definition
10's deg

Wind Spd Definition
km/h
Visibility Definition
km
Stn Press Definition
kPa
Hmdx Definition


Wind Chill Definition


Weather Definition


TIME
00:00 Legend Double Dagger 15.0 15.0 100 28 12 12.9 99.96     LegendNANA
01:00 Legend Double Dagger 13.4 13.4 100 32 13 16.1 99.98     Mostly Cloudy
02:00 Legend Double Dagger 11.9 10.2 89 35 18 24.1 100.03     LegendNANA
03:00 Legend Double Dagger 10.8 9.4 91 35 9 24.1 100.09     LegendNANA
04:00 Legend Double Dagger 9.1 9.0 99 33 12 24.1 100.09     Clear
05:00 Legend Double Dagger 8.7 8.0 95 34 14 24.1 100.12     LegendNANA
06:00 Legend Double Dagger 8.2 7.1 93 35 10 24.1 100.12     LegendNANA
07:00 Legend Double Dagger 7.8 6.8 93 35 14 24.1 100.15     Mainly Clear
08:00 Legend Double Dagger 8.8 6.8 87 2 16 24.1 100.25     LegendNANA
09:00 Legend Double Dagger 9.5 5.7 77 1 16 24.1 100.24     LegendNANA
10:00 Legend Double Dagger 10.8 5.6 70 4 16 24.1 100.19     Mainly Clear
11:00 Legend Double Dagger 12.1 6.0 66 3 10 24.1 100.16     LegendNANA
12:00 Legend Double Dagger 13.2 6.1 62 10 7 24.1 100.03     LegendNANA
13:00 Legend Double Dagger 14.1 6.5 60 6 5 24.1 100.01     Mostly Cloudy
14:00 Legend Double Dagger 15.3 6.9 57 6 10 24.1 99.95     LegendNANA
15:00 Legend Double Dagger 14.5 8.1 65 10 16 24.1 99.70     LegendNANA
16:00 Legend Double Dagger 14.2 9.1 71 10 8 24.1 99.80     Mostly Cloudy
17:00 Legend Double Dagger 12.4 10.3 87 11 12 24.1 99.70     LegendNANA
18:00 Legend Double Dagger 12.2 9.6 84 7 18 24.1 99.68     LegendNANA
19:00 Legend Double Dagger 11.2 7.9 80 7 25 24.1 99.68     Mostly Cloudy
20:00 Legend Double Dagger 10.9 6.9 76 7 21 24.1 99.67     LegendNANA
21:00 Legend Double Dagger 10.2 6.9 80 8 15 24.1 99.72     Rain
22:00 Legend Double Dagger 10.5 6.3 75 8 20 24.1 99.69     Rain
23:00 Legend Double Dagger 10.5 5.7 72 7 19 24.1 99.63     LegendNANA

Notes on Data Quality.

Legend

  • E = Estimated
  • M = Missing
  • NA = Not Available
  • ‡ = Partner data that is not subject to review by the National Climate Archives
Date modified: